Station TOKW1 - 9440910 - Toke Point, WA Image indicating link to RSS feed of recent meteorological observations for station TOKW1


Conditions at TOKW1 as of
(4:18 pm PDT)
2318 GMT on 05/17/2024:
     

Click on the graph icon in the table below to see a time series plot of the last five days of that observation.

5-day plot - Wind Direction Wind Direction (WDIR):WNW ( 290 deg true )
5-day plot - Wind Speed Wind Speed (WSPD): 12.0 kts
5-day plot - Wind Gust Wind Gust (GST): 15.9 kts
5-day plot - Atmospheric Pressure Atmospheric Pressure (PRES):30.26 in
5-day plot - Air Temperature Air Temperature (ATMP): 52.3 °F
5-day plot - Water Temperature Water Temperature (WTMP): 57.6 °F
5-day plot - Wind Chill Wind Chill (CHILL): 47.8 °F
5-day plot - Wind Speed at 10 Meters Wind Speed at 10 meters (WSPD10M): 11.7 kts
5-day plot - Wind Speed at 20 Meters Wind Speed at 20 meters (WSPD20M): 13.6 kts
5-day plot -  Wind Speed, Wind Gust and Atmospheric Pressure Combined plot of Wind Speed, Gust, and Air Pressure
NOS Water Level Observation Network Water Level
Previous observations
TIME
(PDT)
5-day plot - Wind Direction
WDIR
 
5-day plot - Wind Speed
WSPD
kts
5-day plot - Wind Gust
GST
kts
5-day plot - Wave Height
WVHT
ft
5-day plot - Dominant Wave Period
DPD
sec
5-day plot - Average Wave Period
APD
sec
5-day plot - Mean Wave Direction
MWD
 
5-day plot - Atmospheric Pressure
PRES
in
5-day plot - Pressure Tendency
PTDY
in
5-day plot - Air Temperature
ATMP
°F
5-day plot - Water Temperature
WTMP
°F
5-day plot - Dew Point
DEWP
°F
5-day plot - Salinity
SAL
psu
5-day plot - Visibility
VIS
nmi
5-day plot - Tide (above MLLW)
TIDE
ft
2024-05-17 04:12 pm W 13.0 17.1----30.25- 52.3 57.6----
2024-05-17 04:06 pm W 14.0 18.1----30.25- 53.1 57.4----
2024-05-17 04:00 pmWNW 14.0 15.9----30.25+0.00 53.6 57.4----
2024-05-17 03:54 pm W 8.9 13.0----30.25- 54.3 57.4----
2024-05-17 03:48 pmWNW 9.9 14.0----30.25- 54.1 57.4----
2024-05-17 03:42 pm W 12.0 15.9----30.25- 54.0 57.4----
2024-05-17 03:36 pm W 9.9 14.0----30.25- 54.7 57.4----
2024-05-17 03:30 pm-------30.24- 54.3 57.2----
2024-05-17 03:24 pm-------30.25- 54.1 57.2----
2024-05-17 03:18 pm W 8.9 13.0----30.25-- 57.2----
2024-05-17 03:12 pm W 11.1 15.0----30.25-- 57.2----
2024-05-17 03:06 pm W 9.9 15.0----30.25-- 57.0----
2024-05-17 03:00 pm W 9.9 15.0----30.24+0.00 54.0 57.0----
2024-05-17 02:54 pmWSW 9.9 12.0----30.24- 53.8 57.0----
2024-05-17 02:48 pmWSW 8.0 12.0----30.24- 54.1 57.0----
2024-05-17 02:42 pmWSW 8.0 12.0----30.25- 53.4 57.0----
2024-05-17 02:36 pmWSW 8.0 12.0----30.25- 52.9 56.8----
2024-05-17 02:30 pmWSW 8.9 12.0----30.25- 53.2 56.8----
2024-05-17 02:24 pmWSW 8.9 13.0----30.25- 53.4 56.8----
2024-05-17 02:18 pm W 8.9 14.0----30.25- 52.7 56.8----
2024-05-17 02:12 pm W 11.1 15.0----30.25- 52.5 56.7----
2024-05-17 02:06 pm W 12.0 15.0----30.25- 52.9 56.8----
2024-05-17 02:00 pm W 8.0 15.0----30.25+0.02 53.8 56.7----
2024-05-17 01:54 pmWSW 11.1 17.1----30.25- 53.8 56.7----
2024-05-17 01:48 pm W 9.9 15.0----30.25- 54.1 56.7----
2024-05-17 01:42 pmWSW 9.9 15.0----30.25- 54.1 56.7----
2024-05-17 01:36 pmWSW 11.1 13.0----30.25- 53.4 56.7----
2024-05-17 01:30 pmWSW 9.9 14.0----30.25- 53.6 56.7----
2024-05-17 01:24 pm W 8.9 15.9----30.25- 54.1 56.5----
2024-05-17 01:18 pm W 9.9 15.9----30.25- 53.4 56.5----
2024-05-17 01:12 pm W 11.1 14.0----30.25- 54.0 56.5----
2024-05-17 01:06 pm W 12.0 15.0----30.25- 53.4 56.5----
2024-05-17 01:00 pm W 9.9 14.0----30.25+0.02 53.8 56.5----
2024-05-17 12:54 pm W 11.1 15.0----30.25- 54.3 56.3----
2024-05-17 12:48 pm W 11.1 15.0----30.25- 53.6 56.3----
2024-05-17 12:42 pmWNW 11.1 15.0----30.25- 53.6 56.3----
2024-05-17 12:36 pmWNW 12.0 14.0----30.25- 53.4 56.3----
2024-05-17 12:30 pmWNW 8.9 13.0----30.25- 53.8 56.3----
2024-05-17 12:24 pmWNW 11.1 14.0----30.25- 54.0 56.3----
2024-05-17 12:18 pm NW 13.0 15.9----30.25- 53.6 56.1----
2024-05-17 12:12 pm NW 12.0 14.0----30.24- 53.6 56.1----
2024-05-17 12:06 pm NW 14.0 19.0----30.25- 53.2 56.1----
2024-05-17 12:00 pmWNW 15.0 19.0----30.24+0.02 53.2 56.1----
2024-05-17 11:54 am NW 12.0 18.1----30.24- 53.4 56.1----
2024-05-17 11:48 amNNW 11.1 14.0------- 56.1----
2024-05-17 11:42 am NW 6.0 8.9------- 55.9----
2024-05-17 11:36 am NW 8.9 15.9------- 55.9----
2024-05-17 11:30 amWNW 11.1 15.0----30.24- 52.9 55.9----
2024-05-17 11:24 amWNW 13.0 18.1----30.24- 52.9 56.1----
2024-05-17 11:18 amWNW 12.0 15.0----30.24- 52.9 55.9----
2024-05-17 11:12 am W 13.0 18.1----30.24- 53.2 55.9----
2024-05-17 11:06 amWNW 12.0 19.0----30.23- 53.2 55.9----
2024-05-17 11:00 amWNW 13.0 15.9----30.23+0.03 53.1 55.9----
2024-05-17 10:54 amWNW 11.1 13.0----30.23- 53.2 55.9----
2024-05-17 10:48 am NW 7.0 15.0----30.23-- 55.9----
2024-05-17 10:42 amWNW 13.0 18.1----30.23-- 55.9----
2024-05-17 10:36 am NW 12.0 17.1----30.23-- 55.8----
2024-05-17 10:30 amWNW 11.1 14.0----30.23- 52.9 55.8----
2024-05-17 10:24 am NW 8.9 17.1----30.23- 53.1 55.9----
2024-05-17 10:18 am NW 12.0 19.0----30.23- 53.2 55.9----
2024-05-17 10:12 am NW 9.9 15.0----30.23- 53.1 55.8----
2024-05-17 10:06 amWNW 13.0 18.1----30.23- 52.7 55.8----
2024-05-17 10:00 amWNW 11.1 15.9----30.23+0.04 52.9 55.8----
2024-05-17 09:54 am NW 8.9 15.9----30.23- 53.1 55.8----
2024-05-17 09:48 am NW 12.0 19.0----30.23- 52.7 55.9----
2024-05-17 09:42 am NW 13.0 17.1----30.23- 52.7 55.9----
2024-05-17 09:36 amWNW 12.0 18.1----30.23- 52.9 55.9----
2024-05-17 09:30 amWNW 11.1 15.9----30.23- 52.7 55.9----
2024-05-17 09:24 amWNW 9.9 15.0----30.23- 52.5 55.9----
2024-05-17 09:18 amWNW 11.1 17.1----30.22- 52.2 55.9----
2024-05-17 09:12 amWNW 14.0 18.1----30.22- 52.0 55.9----
2024-05-17 09:06 amWNW 14.0 15.9----30.22- 52.0 55.9----
2024-05-17 09:00 amWNW 17.1 21.0----30.22+0.05 52.0 55.9----
2024-05-17 08:54 amWNW 15.0 19.0----30.22- 52.2 55.9----
2024-05-17 08:48 amWNW 12.0 15.9----30.22- 52.2 55.9----
2024-05-17 08:42 amWNW 9.9 15.0----30.22- 52.3 55.9----
2024-05-17 08:36 amWNW 11.1 15.9----30.21- 52.2 55.9----
2024-05-17 08:30 amWNW 9.9 15.0----30.21- 52.2 55.9----
2024-05-17 08:24 am NW 11.1 14.0----30.21- 52.5 55.9----
2024-05-17 08:18 am NW 8.9 11.1----30.21- 52.3 55.9----
2024-05-17 08:12 am NW 8.9 12.0----30.21- 52.2 55.9----
2024-05-17 08:06 am NW 8.9 12.0----30.21- 52.0 55.9----
2024-05-17 08:00 am NW 8.9 12.0----30.21+0.05 51.8 55.9----
2024-05-17 07:54 am NW 9.9 14.0----30.21- 51.6 55.9----
2024-05-17 07:48 amWNW 9.9 13.0----30.21- 51.4 55.9----
2024-05-17 07:42 amWNW 12.0 15.0----30.20- 51.4 55.9----
2024-05-17 07:36 amWNW 9.9 13.0----30.20- 51.4 55.9----
2024-05-17 07:30 amWNW 8.0 12.0----30.20- 51.3 55.9----
2024-05-17 07:24 am W 8.0 9.9----30.20- 51.3 56.1----
2024-05-17 07:18 amWNW 8.0 13.0----30.20- 51.1 56.1----
2024-05-17 07:12 am W 8.9 12.0----30.20- 51.1 56.1----
2024-05-17 07:06 amWNW 7.0 12.0----30.19- 50.9 56.1----
2024-05-17 07:00 amWNW 8.9 12.0----30.19+0.05 50.9 56.1----
2024-05-17 06:54 amWNW 8.0 12.0----30.19- 50.7 56.1----
2024-05-17 06:48 amWNW 9.9 15.9----30.19- 50.7 56.3----
2024-05-17 06:42 amWNW 9.9 12.0----30.18- 50.5 56.1----
2024-05-17 06:36 amWNW 9.9 12.0----30.18- 50.4 56.1----
2024-05-17 06:30 amWNW 6.0 8.0----30.18- 49.8 56.1----
2024-05-17 06:24 amWNW 5.1 9.9----30.18- 49.5 56.1----
2024-05-17 06:18 am NW 8.0 9.9----30.18- 49.8 56.1----
2024-05-17 06:12 am NW 7.0 12.0----30.18- 49.8 56.1----
2024-05-17 06:06 am NW 8.0 12.0----30.17- 50.0 56.1----
2024-05-17 06:00 am NW 8.9 12.0----30.17+0.04 50.0 56.1----
2024-05-17 05:54 am NW 7.0 9.9----30.17- 50.0 55.9----
2024-05-17 05:48 am NW 7.0 9.9----30.17- 50.2 55.9----
2024-05-17 05:42 amWNW 6.0 9.9----30.16- 50.2 55.9----
2024-05-17 05:36 amWNW 6.0 7.0----30.16- 50.4 55.9----
2024-05-17 05:30 amWNW 6.0 8.9----30.16- 50.2 55.9----
2024-05-17 05:24 amWNW 8.0 9.9----30.16- 50.4 55.9----
2024-05-17 05:18 amWNW 6.0 12.0----30.16- 50.4 55.9----
2024-05-17 05:12 amWNW 8.0 12.0----30.16- 50.4 55.9----
2024-05-17 05:06 amWNW 9.9 13.0----30.16- 50.4 55.9----
2024-05-17 05:00 amWNW 8.9 12.0----30.16+0.04 50.2 55.9----
2024-05-17 04:54 am NW 9.9 14.0----30.15- 50.0 55.9----
2024-05-17 04:48 amWNW 11.1 14.0----30.15- 50.2 55.9----
2024-05-17 04:42 amWNW 7.0 12.0----30.15- 49.8 55.9----
2024-05-17 04:36 amWNW 6.0 8.0----30.15- 49.6 55.9----
2024-05-17 04:30 amWNW 6.0 8.9----30.15- 49.8 55.9----
2024-05-17 04:24 amWNW 6.0 8.0----30.15- 49.6 55.9----
2024-05-17 04:18 amWNW 7.0 9.9----30.15- 49.5 55.9----
2024-05-17 04:12 amWNW 8.9 13.0----30.14- 49.6 55.9----
2024-05-17 04:06 amWNW 11.1 15.0----30.14- 50.0 55.9----
2024-05-17 04:00 am NW 12.0 15.0----30.14+0.04 49.6 55.9----
2024-05-17 03:54 amWNW 9.9 12.0----30.15- 49.6 55.9----
2024-05-17 03:48 amWNW 8.9 12.0----30.14- 49.5 55.9----
2024-05-17 03:42 am NW 8.0 8.9----30.14- 49.3 55.9----
2024-05-17 03:36 amWNW 8.0 9.9----30.14- 49.3 55.9----
2024-05-17 03:30 amWNW 6.0 8.9----30.14- 49.5 55.9----
2024-05-17 03:24 amWNW 5.1 7.0----30.14- 49.3 55.9----
2024-05-17 03:18 am NW 6.0 8.9----30.14- 49.3 55.9----
2024-05-17 03:12 am NW 7.0 8.9----30.13- 49.5 55.9----
2024-05-17 03:06 am NW 6.0 11.1----30.13- 49.5 55.9----
2024-05-17 03:00 am NW 7.0 9.9----30.13+0.03 49.5 56.1----
2024-05-17 02:54 am NW 8.0 9.9----30.13- 49.6 56.1----
2024-05-17 02:48 amWNW 7.0 8.9----30.13- 49.5 56.1----
2024-05-17 02:42 amWNW 8.0 9.9----30.12- 49.6 56.1----
2024-05-17 02:36 am NW 7.0 12.0----30.12- 49.6 56.1----
2024-05-17 02:30 am NW 7.0 9.9----30.12- 49.6 56.1----
2024-05-17 02:24 am NW 7.0 9.9----30.12- 49.6 56.1----
2024-05-17 02:18 am NW 7.0 8.9----30.12- 49.6 56.1----
2024-05-17 02:12 am NW 6.0 8.0----30.12- 49.5 56.1----
2024-05-17 02:06 amWNW 6.0 8.9----30.12- 49.5 56.1----
2024-05-17 02:00 am NW 7.0 11.1----30.12- 49.6 56.1----
2024-05-17 01:54 amWNW 8.0 11.1----30.12- 49.6 56.1----
2024-05-17 01:48 am NW 8.0 12.0----30.12- 49.8 56.1----
2024-05-17 01:42 am NW 7.0 8.0----30.11- 49.8 56.1----
2024-05-17 01:36 am NW 6.0 8.9----30.11- 49.8 56.1----
2024-05-17 01:30 am NW 7.0 8.0----30.11- 49.8 56.1----
2024-05-17 01:24 am NW 8.0 9.9----30.11- 49.8 56.1----
2024-05-17 01:18 am NW 9.9 13.0----30.11- 50.2 56.1----
2024-05-17 01:12 am NW 8.0 9.9----30.11- 50.0 55.9----
2024-05-17 01:06 amWNW 6.0 8.9----30.11- 50.2 56.1----
2024-05-17 01:00 amWNW 7.0 8.9----30.11+0.04 50.2 56.1----
2024-05-17 12:54 amWNW 6.0 9.9----30.11- 50.4 56.1----
2024-05-17 12:48 am NW 7.0 8.9----30.11- 50.4 56.3----
2024-05-17 12:42 am NW 6.0 9.9----30.10- 50.4 56.3----
2024-05-17 12:36 am NW 7.0 8.9----30.10- 50.5 56.1----
2024-05-17 12:30 am NW 5.1 8.0----30.10- 50.4 56.1----
2024-05-17 12:24 amWNW 6.0 8.0----30.10- 50.4 56.1----
2024-05-17 12:18 am NW 7.0 8.0----30.10- 50.4 56.1----
2024-05-17 12:12 am NW 6.0 8.9----30.10- 50.4 55.9----
2024-05-17 12:06 am NW 8.9 11.1----30.10- 50.2 55.9----
2024-05-17 12:00 am NW 8.9 12.0----30.10+0.06 50.4 55.9----
2024-05-16 11:54 pm NW 8.9 12.0----30.10- 50.5 55.9----
2024-05-16 11:48 pm NW 11.1 15.0----30.10- 50.5 56.1----
2024-05-16 11:42 pm NW 12.0 14.0----30.10- 50.7 55.9----
2024-05-16 11:36 pm NW 13.0 17.1----30.10- 50.7 56.1----
2024-05-16 11:30 pm NW 12.0 17.1----30.09- 50.9 56.3----
2024-05-16 11:24 pm NW 12.0 15.9----30.09- 50.9 56.1----
2024-05-16 11:18 pm NW 13.0 15.9----30.09- 50.9 55.8----
2024-05-16 11:12 pm NW 13.0 18.1----30.09- 50.9 55.4----
2024-05-16 11:06 pm NW 12.0 15.0----30.08- 51.1 55.6----
2024-05-16 11:00 pmNNW 12.0 14.0------ 51.3 55.8----
2024-05-16 10:54 pm NW 13.0 19.0------ 51.4 55.8----
2024-05-16 10:48 pm NW 15.0 20.0----30.07- 51.4 55.6----
2024-05-16 10:42 pm NW 15.0 19.0----30.07- 51.4 55.6----
2024-05-16 10:36 pm NW 9.9 13.0----30.07- 51.3 55.8----
2024-05-16 10:30 pmWNW 9.9 12.0----30.07- 51.3 55.6----
2024-05-16 10:24 pmWNW 8.0 11.1----30.07- 51.1 55.6----
2024-05-16 10:18 pmWNW 8.0 9.9----30.07- 50.9 55.6----
2024-05-16 10:12 pm NW 9.9 13.0----30.06- 50.9 55.8----
2024-05-16 10:06 pm NW 8.0 12.0----30.06- 50.9 55.8----
2024-05-16 10:00 pm NW 8.9 11.1----30.06+0.03 50.9 55.8----
2024-05-16 09:54 pm NW 8.9 12.0----30.06- 50.9 55.8----
2024-05-16 09:48 pm NW 8.9 11.1----30.06- 51.1 55.8----
2024-05-16 09:42 pmNNW 11.1 14.0----30.05- 51.3 55.8----
2024-05-16 09:36 pmNNW 13.0 15.0----30.05- 51.1 55.8----
2024-05-16 09:30 pm NW 9.9 17.1----30.05- 51.1 55.8----
2024-05-16 09:24 pm NW 12.0 18.1----30.06- 51.3 55.9----
2024-05-16 09:18 pm NW 12.0 17.1----30.05- 51.1 55.9----
2024-05-16 09:12 pmWNW 7.0 8.9----30.05- 51.6 55.9----
2024-05-16 09:06 pmWNW 7.0 9.9----30.05- 51.6 55.9----
2024-05-16 09:00 pmWNW 8.0 11.1----30.05+0.00 51.4 56.1----
2024-05-16 08:54 pmWNW 8.0 9.9----30.04- 51.4 56.3----
2024-05-16 08:48 pmWNW 8.0 11.1----30.04- 51.8 56.5----
2024-05-16 08:42 pm NW 8.0 11.1----30.04- 51.4 56.5----
2024-05-16 08:36 pm NW 8.9 13.0----30.04- 51.3 56.7----
2024-05-16 08:30 pm NW 9.9 15.9----30.04- 51.4 56.7----
2024-05-16 08:24 pm NW 12.0 19.0----30.04- 51.6 56.7----
2024-05-16 08:18 pm NW 14.0 18.1----30.04- 51.8 56.8----
2024-05-16 08:12 pmWNW 14.0 18.1----30.04- 52.3 56.8----
2024-05-16 08:06 pmWNW 15.0 18.1----30.03- 52.7 57.0----
2024-05-16 08:00 pmWNW 8.0 11.1----30.03-0.02 53.1 57.4----
2024-05-16 07:54 pmWNW 8.9 12.0----30.03- 53.1 57.6----
2024-05-16 07:48 pmWNW 9.9 13.0----30.03- 53.2 57.7----
2024-05-16 07:42 pmWNW 8.9 12.0----30.03- 53.2 57.9----
2024-05-16 07:36 pmWNW 7.0 12.0----30.03- 53.2 58.1----
2024-05-16 07:30 pmWNW 8.9 15.0----30.03- 53.2 58.3----
2024-05-16 07:24 pmWNW 11.1 14.0----30.03- 53.2 58.5----
2024-05-16 07:18 pmWNW 9.9 13.0----30.03- 53.4 58.6----
2024-05-16 07:12 pm NW 11.1 14.0----30.03- 53.4 58.6----
2024-05-16 07:06 pmWNW 9.9 13.0----30.03- 53.4 58.6----
2024-05-16 07:00 pmWNW 12.0 14.0----30.03-0.02 53.4 58.6----
2024-05-16 06:54 pm NW 9.9 15.0----30.03- 53.4 58.6----
2024-05-16 06:48 pmWNW 15.0 17.1----30.03- 53.4 58.6----
2024-05-16 06:42 pmWNW 15.0 17.1----30.03- 53.4 58.5----
2024-05-16 06:36 pm NW 13.0 17.1----30.03- 53.6 58.3----
2024-05-16 06:30 pmWNW 12.0 15.9----30.03- 54.0 58.3----
2024-05-16 06:24 pmWNW 13.0 19.0----30.03- 54.0 58.3----
2024-05-16 06:18 pmWNW 13.0 15.9----30.04- 54.0 58.1----
2024-05-16 06:12 pmWNW 13.0 18.1----30.04- 54.1 58.3----
2024-05-16 06:06 pmWNW 14.0 15.9----30.04- 53.8 58.3----
2024-05-16 06:00 pmWNW 15.0 17.1----30.04-0.03 54.0 58.1----
2024-05-16 05:54 pmWNW 13.0 14.0----30.04- 54.1 58.3----
2024-05-16 05:48 pmWNW 11.1 14.0----30.04- 54.0 58.3----
2024-05-16 05:42 pmWNW 11.1 15.9----30.04- 53.8 58.3----
2024-05-16 05:36 pmWNW 15.0 18.1----30.04- 53.6 58.3----
2024-05-16 05:30 pmWNW 11.1 15.9----30.04- 53.8 58.5----
2024-05-16 05:24 pmWNW 12.0 15.9----30.04- 53.6 58.6----
2024-05-16 05:18 pmWNW 13.0 17.1----30.05- 53.4 59.0----
2024-05-16 05:12 pm W 12.0 15.0----30.05- 53.8 59.0----
2024-05-16 05:06 pmWNW 8.9 15.9----30.05- 53.8 59.0----
2024-05-16 05:00 pm W 9.9 14.0----30.05-0.03 54.0 58.8----
2024-05-16 04:54 pm W 11.1 17.1----30.05- 54.0 58.6----
2024-05-16 04:48 pm W 9.9 14.0----30.05- 53.8 58.5----
2024-05-16 04:42 pm W 13.0 17.1----30.05- 53.6 58.3----
2024-05-16 04:36 pm W 8.9 13.0----30.05- 54.3 58.3----
2024-05-16 04:30 pmWSW 11.1 14.0----30.05- 54.3 58.3----
2024-05-16 04:24 pmWSW 8.9 13.0----30.05- 54.3 58.3----
2024-05-16 04:00 pmWSW 9.9 15.9----30.06-0.04 54.0 58.8----
2024-05-16 03:54 pm SW 12.0 15.9----30.06- 53.6 58.8----